Regional Weather Roundup
Issued by NWS Cleveland, OH

Home | Current Version | Previous Version | Graphics & Text | Print | Product List | Glossary On
Versions: 1 2 3 4 5 6 7 8 9 10 11 12 13 14 15 16 17 18 19 20 21 22 23 24 25 26 27 28 29 30 31 32 33 34 35 36 37 38 39 40 41 42 43 44 45 46 47 48 49 50
000
ASUS41 KCLE 171710
RWRCLE
OHIO REGIONAL WEATHER ROUNDUP
NATIONAL WEATHER SERVICE WILMINGTON, OH
1200 PM EST FRI NOV 17 2017

NOTE: "FAIR" INDICATES FEW OR NO CLOUDS BELOW 12,000 FEET WITH NO
SIGNIFICANT WEATHER AND/OR OBSTRUCTIONS TO VISIBILITY.

OHZ001>008-015>018-024>027-034-035-043-044-171800-
   NORTHWEST OHIO

CITY           SKY/WX    TMP DP  RH WIND       PRES   REMARKS
DEFIANCE       PTSUNNY   40  31  70 SE10      30.16F
FINDLAY        FAIR      41  30  65 S14       30.17F
TOLEDO EXPRESS FAIR      41  32  70 S12       30.17F
TOLEDO EXEC    FAIR      41  30  65 S15       30.19F
LIMA           FAIR      41  33  73 S14       30.16F
$$

OHZ009>014-019>023-028>033-038-089-171800-
   NORTHEAST OHIO

CITY           SKY/WX    TMP DP  RH WIND       PRES   REMARKS
CLE-HOPKINS    PTSUNNY   44  30  57 S8        30.23F
CLE-LAKEFRONT  FAIR      43  28  55 S13       30.21F
CUY CO. ARPT   PTSUNNY   43  30  61 S12       30.21F
LORAIN-ELYRIA  FAIR      42  26  53 S13       30.21F
ASHTABULA      FAIR      39  29  67 S5        30.21F
AKRON-CANTON   PTSUNNY   40  27  59 S7        30.21F
WOOSTER        FAIR      41  30  65 SE12      30.21F
MANSFIELD      FAIR      40  29  64 SE12      30.18F
YOUNGSTOWN     PTSUNNY   39  27  62 VRB3      30.22F
$$

OHZ042-051>053-060>062-070>072-077>081-171800-
  SOUTHWEST OHIO

CITY           SKY/WX    TMP DP  RH WIND       PRES   REMARKS
CINC-COVINGTON FAIR      43  33  68 SE10      30.16F
CINC-LUNKEN    FAIR      44  33  65 S8        30.20F
HAMILTON       FAIR      43  32  65 VRB7      30.19F
DAYTON         FAIR      42  33  70 S15       30.17F
WRIGHT-PAT AFB FAIR      43  32  63 SE12      30.17F
DAYTON GENERAL FAIR      42  31  64 SE9       30.17F
WILMINGTON     FAIR      41  33  73 SE8       30.17F
$$

OHZ036-037-039>041-045>050-054>059-063>069-073>076-082>088-171800-
  CENTRAL AND SOUTHEAST OHIO

CITY           SKY/WX    TMP DP  RH WIND       PRES   REMARKS
COLUMBUS       FAIR      43  32  65 SE8       30.20F
OSU AIRPORT    FAIR      43  33  68 SE10      30.19F
BOLTON FIELD   MOSUNNY   43  32  65 SE8       30.21F
RICKENBACK AFB FAIR      42  32  68 SE10      30.21F
NEWARK         FAIR      42  29  59 E8        30.20F
MARION         FAIR      41  31  67 SE18      30.19F
LANCASTER      FAIR      43  32  65 SE9       30.20F
ZANESVILLE     FAIR      42  30  62 S7        30.23F
NEW PHILLY     FAIR      42  28  57 SW3       30.24F
$$



USA.gov is the U.S. government's official web portal to all federal, state and local government web resources and services.